Olathe New Century, KS

6:03 PM CDT on June 23, 2017 (GMT -0500)
New Century Aircenter

Weather History for KIXD - October, 2012

Change the Weather History Date:

Wednesday, October 3, 2012

  Actual Average Record
Temperature  
Mean Temperature 60 °F -  
Max Temperature 77 °F 70 °F 93 °F (2006)
Min Temperature 45 °F 47 °F 37 °F (2010)
Degree Days  
Heating Degree Days 5    
Growing Degree Days 10 (Base 50)    
Moisture  
Dew Point 45 °F    
Average Humidity 59    
Maximum Humidity 93    
Minimum Humidity 31    
Precipitation  
Precipitation 0.00 in - - ()
Sea Level Pressure  
Sea Level Pressure 29.93 in    
Wind  
Wind Speed 5 mph (South)    
Max Wind Speed 14 mph    
Max Gust Speed 20 mph    
Visibility 10 miles    
Events      
Averages and records for this station are not official NWS values.
T = Trace of Precipitation, MM = Missing Value Source: NWS Daily Summary

Daily Weather History Graph

Daily Weather History Graph

Search for Another Location

Airport or City:

Trip Planner

Search our weather history database for the weather conditions in past years. The results will help you decide how hot, cold, wet, or windy it might be!

Date:

Astronomy

Oct. 03, 2012 Rise Set
Actual Time 7:17 AM CDT 6:58 PM CDT
Civil Twilight 6:51 AM CDT 7:24 PM CDT
Nautical Twilight 6:20 AM CDT 7:55 PM CDT
Astronomical Twilight 5:49 AM CDT 8:26 PM CDT
Moon 8:53 PM CDT (10/3) 10:39 AM CDT (10/3)
Length of Visible Light 12h 33m
Length of Day
11h 40m
Waning Gibbous, 88% of the Moon is Illuminated
Oct 3
Waning Gibbous
Oct 8
Last Quarter
Oct 15
New
Oct 21
First Quarter
Oct 29
Full

Hourly Weather History & Observations

Time (CDT) Temp. Windchill Dew Point Humidity Pressure Visibility Wind Dir Wind Speed Gust Speed Precip Events Conditions
12:53 AM 54.0 °F - 43.0 °F 66% 29.91 in 10.0 mi Calm Calm - N/A   Clear
1:53 AM 51.1 °F - 42.1 °F 71% 29.91 in 10.0 mi SSE 3.5 mph - N/A   Clear
2:53 AM 48.9 °F - 43.0 °F 80% 29.92 in 10.0 mi South 3.5 mph - N/A   Clear
3:53 AM 46.9 °F - 44.1 °F 90% 29.93 in 10.0 mi South 3.5 mph - N/A   Clear
4:53 AM 46.9 °F - 45.0 °F 93% 29.93 in 10.0 mi SSW 3.5 mph - N/A   Clear
5:53 AM 46.9 °F - 41.0 °F 80% 29.94 in 10.0 mi South 3.5 mph - N/A   Clear
6:53 AM 46.0 °F 44.8 °F 44.1 °F 93% 29.96 in 10.0 mi South 3.5 mph - N/A   Clear
7:53 AM 45.0 °F 43.5 °F 43.0 °F 93% 29.97 in 10.0 mi South 3.5 mph - N/A   Clear
8:53 AM 55.9 °F - 48.0 °F 75% 29.97 in 10.0 mi Calm Calm - N/A   Clear
9:53 AM 64.0 °F - 46.9 °F 54% 29.97 in 10.0 mi SSW 10.4 mph - N/A   Clear
10:53 AM 69.1 °F - 46.9 °F 45% 29.97 in 10.0 mi SSW 10.4 mph - N/A   Clear
11:53 AM 72.0 °F - 46.0 °F 40% 29.96 in 10.0 mi South 11.5 mph - N/A   Clear
12:53 PM 73.9 °F - 44.1 °F 34% 29.94 in 10.0 mi South 9.2 mph - N/A   Clear
1:53 PM 75.0 °F - 42.1 °F 31% 29.92 in 10.0 mi SSW 10.4 mph 19.6 mph N/A   Clear
2:53 PM 75.9 °F - 43.0 °F 31% 29.91 in 10.0 mi SSW 12.7 mph - N/A   Clear
3:53 PM 75.9 °F - 44.1 °F 32% 29.90 in 10.0 mi SSW 13.8 mph - N/A   Clear
4:53 PM 75.0 °F - 44.1 °F 33% 29.89 in 10.0 mi South 13.8 mph - N/A   Clear
5:53 PM 73.0 °F - 45.0 °F 37% 29.91 in 10.0 mi South 11.5 mph - N/A   Clear
6:53 PM 64.9 °F - 46.0 °F 50% 29.91 in 10.0 mi SSE 6.9 mph - N/A   Clear
7:53 PM 66.0 °F - 45.0 °F 47% 29.93 in 10.0 mi SSE 6.9 mph - N/A   Clear
8:53 PM 63.0 °F - 46.9 °F 56% 29.93 in 10.0 mi SSE 8.1 mph - N/A   Clear
9:53 PM 60.1 °F - 48.0 °F 64% 29.93 in 10.0 mi SSE 8.1 mph - N/A   Clear
10:53 PM 63.0 °F - 48.9 °F 60% 29.95 in 10.0 mi South 10.4 mph - N/A   Clear
11:53 PM 62.1 °F - 50.0 °F 65% 29.96 in 10.0 mi South 9.2 mph - N/A   Clear